| time (UTC) | temp C | wind direction | speed KPH | gust KPH | rain 1hr cm | rain 24hr cm | rain mn cm | humidity % | barometer mb |
| 20260505185916 | 12 | 45 | 4.8 | 6.4 | 0.00 | 0.41 | 0.25 | 92 | 1009.8 |
| 20260505184916 | 12 | 45 | 3.2 | 6.4 | 0.00 | 0.41 | 0.25 | 92 | 1009.6 |
| 20260505183916 | 12 | 68 | 6.4 | 11.3 | 0.00 | 0.41 | 0.25 | 92 | 1009.6 |
| 20260505182916 | 12 | 68 | 4.8 | 8.0 | 0.00 | 0.41 | 0.25 | 92 | 1009.7 |
| 20260505181916 | 12 | 45 | 3.2 | 8.0 | 0.00 | 0.41 | 0.25 | 92 | 1009.7 |
| 20260505180916 | 12 | 68 | 6.4 | 9.7 | 0.00 | 0.41 | 0.25 | 92 | 1009.6 |
| 20260505175916 | 12 | 68 | 3.2 | 4.8 | 0.00 | 0.41 | 0.25 | 92 | 1009.7 |
| 20260505174916 | 12 | 68 | 1.6 | 3.2 | 0.00 | 0.41 | 0.25 | 92 | 1009.7 |
| 20260505173916 | 12 | 90 | 3.2 | 6.4 | 0.00 | 0.41 | 0.25 | 92 | 1009.7 |
| 20260505172916 | 12 | 68 | 1.6 | 3.2 | 0.00 | 0.41 | 0.25 | 92 | 1009.9 |
| 20260505171936 | 12 | 45 | 4.8 | 8.0 | 0.00 | 0.41 | 0.25 | 92 | 1009.9 |
| 20260505170916 | 12 | 45 | 4.8 | 6.4 | 0.00 | 0.41 | 0.25 | 92 | 1009.9 |
| 20260505165916 | 12 | 23 | 4.8 | 6.4 | 0.00 | 0.41 | 0.25 | 92 | 1010.0 |
| 20260505164936 | 12 | 45 | 4.8 | 9.7 | 0.00 | 0.41 | 0.25 | 92 | 1009.9 |
| 20260505163916 | 12 | 45 | 4.8 | 8.0 | 0.00 | 0.41 | 0.25 | 93 | 1010.0 |
| 20260505162916 | 12 | 45 | 3.2 | 3.2 | 0.00 | 0.41 | 0.25 | 93 | 1010.1 |
| 20260505161916 | 12 | 45 | 6.4 | 8.0 | 0.00 | 0.41 | 0.25 | 93 | 1010.1 |
| 20260505160916 | 12 | 90 | 1.6 | 3.2 | 0.00 | 0.41 | 0.25 | 93 | 1010.1 |
| 20260505152916 | 12 | 23 | 6.4 | 11.3 | 0.00 | 0.41 | 0.25 | 93 | 1010.3 |
| 20260505151916 | 12 | 45 | 8.0 | 11.3 | 0.00 | 0.41 | 0.25 | 93 | 1010.3 |
| 20260505150916 | 12 | 45 | 4.8 | 9.7 | 0.00 | 0.41 | 0.25 | 93 | 1010.4 |
| 20260505124916 | 11 | 68 | 4.8 | 8.0 | 0.00 | 0.41 | 0.25 | 96 | 1011.2 |
| 20260505123916 | 11 | 0.0 | 1.6 | 0.00 | 0.41 | 0.25 | 96 | 1011.3 | |
| 20260505122916 | 11 | 45 | 1.6 | 6.4 | 0.00 | 0.41 | 0.25 | 96 | 1011.2 |
| 20260505121916 | 11 | 45 | 1.6 | 4.8 | 0.00 | 0.41 | 0.25 | 96 | 1011.2 |
| 20260505120916 | 11 | 0 | 4.8 | 8.0 | 0.00 | 0.41 | 0.25 | 97 | 1011.2 |
| 20260505115916 | 11 | 315 | 3.2 | 8.0 | 0.00 | 0.41 | 0.25 | 97 | 1011.2 |
| 20260505114916 | 11 | 45 | 4.8 | 11.3 | 0.00 | 0.41 | 0.25 | 97 | 1011.1 |
| 20260505113916 | 11 | 45 | 4.8 | 11.3 | 0.00 | 0.41 | 0.25 | 97 | 1011.2 |
| 20260505112916 | 11 | 23 | 4.8 | 6.4 | 0.00 | 0.41 | 0.25 | 97 | 1011.3 |
| 20260505111916 | 11 | 45 | 3.2 | 6.4 | 0.00 | 0.41 | 0.25 | 97 | 1011.3 |
| 20260505110916 | 11 | 45 | 3.2 | 6.4 | 0.00 | 0.41 | 0.25 | 97 | 1011.4 |
| 20260505101916 | 11 | 45 | 3.2 | 6.4 | 0.00 | 0.41 | 0.25 | 97 | 1011.5 |
| 20260505100916 | 11 | 0 | 1.6 | 4.8 | 0.00 | 0.41 | 0.25 | 97 | 1011.5 |
| 20260505095916 | 11 | 45 | 1.6 | 1.6 | 0.00 | 0.41 | 0.25 | 97 | 1011.6 |
| 20260505094916 | 11 | 23 | 1.6 | 1.6 | 0.03 | 0.41 | 0.25 | 97 | 1011.6 |
| 20260505093916 | 11 | 45 | 3.2 | 6.4 | 0.03 | 0.41 | 0.25 | 98 | 1011.6 |
| 20260505092916 | 11 | 23 | 4.8 | 6.4 | 0.03 | 0.41 | 0.25 | 98 | 1011.6 |
| 20260505091916 | 11 | 338 | 3.2 | 4.8 | 0.03 | 0.41 | 0.25 | 98 | 1011.7 |
| 20260505090936 | 11 | 23 | 4.8 | 6.4 | 0.03 | 0.41 | 0.25 | 98 | 1011.7 |
| 20260505085936 | 11 | 0 | 3.2 | 6.4 | 0.00 | 0.38 | 0.23 | 98 | 1011.6 |
| 20260505084916 | 11 | 23 | 6.4 | 9.7 | 0.00 | 0.38 | 0.23 | 98 | 1011.6 |
| 20260505083916 | 11 | 45 | 4.8 | 9.7 | 0.00 | 0.38 | 0.23 | 98 | 1011.7 |
| 20260505082936 | 11 | 0 | 4.8 | 8.0 | 0.00 | 0.38 | 0.23 | 98 | 1011.7 |
| 20260505081916 | 11 | 23 | 1.6 | 4.8 | 0.03 | 0.38 | 0.23 | 98 | 1011.7 |
| 20260505080916 | 11 | 68 | 1.6 | 3.2 | 0.03 | 0.38 | 0.23 | 98 | 1011.6 |
| 20260505075916 | 11 | 338 | 1.6 | 1.6 | 0.05 | 0.38 | 0.23 | 98 | 1011.7 |
| 20260505074936 | 11 | 45 | 3.2 | 6.4 | 0.05 | 0.38 | 0.23 | 98 | 1011.7 |
| 20260505073916 | 11 | 45 | 3.2 | 6.4 | 0.05 | 0.38 | 0.23 | 98 | 1011.6 |
| 20260505072916 | 11 | 45 | 1.6 | 4.8 | 0.05 | 0.38 | 0.23 | 98 | 1011.6 |
| 20260505071916 | 11 | 45 | 3.2 | 8.0 | 0.03 | 0.36 | 0.23 | 98 | 1011.6 |
| 20260505070916 | 11 | 0 | 3.2 | 6.4 | 0.03 | 0.36 | 0.23 | 98 | 1011.5 |
| 20260505065916 | 11 | 45 | 3.2 | 6.4 | 0.00 | 0.33 | 0.20 | 98 | 1011.5 |
| 20260505064916 | 11 | 315 | 3.2 | 6.4 | 0.00 | 0.33 | 0.20 | 98 | 1011.5 |
| 20260505063916 | 11 | 45 | 3.2 | 6.4 | 0.00 | 0.33 | 0.20 | 98 | 1011.5 |
| 20260505062916 | 11 | 23 | 1.6 | 4.8 | 0.00 | 0.33 | 0.20 | 98 | 1011.5 |
| 20260505061916 | 11 | 23 | 1.6 | 3.2 | 0.00 | 0.33 | 0.20 | 98 | 1011.7 |
| 20260505060916 | 11 | 0 | 4.8 | 9.7 | 0.00 | 0.33 | 0.20 | 98 | 1011.7 |
| 20260505055936 | 11 | 0.0 | 1.6 | 0.00 | 0.33 | 0.20 | 98 | 1011.6 | |
| 20260505054916 | 11 | 0 | 6.4 | 8.0 | 0.00 | 0.33 | 0.20 | 98 | 1011.6 |
| 20260505053916 | 11 | 68 | 1.6 | 4.8 | 0.00 | 0.33 | 0.20 | 98 | 1011.6 |
| 20260505052916 | 11 | 338 | 6.4 | 9.7 | 0.00 | 0.33 | 0.20 | 98 | 1011.5 |
| 20260505051916 | 12 | 315 | 3.2 | 6.4 | 0.00 | 0.33 | 0.20 | 99 | 1011.5 |
| 20260505051037 | 12 | 0.0 | 0.0 | 0.00 | 0.33 | 0.20 | 99 | 1011.5 | |
| 20260505040916 | 12 | 45 | 3.2 | 4.8 | 0.05 | 0.33 | 0.20 | 99 | 1011.5 |
| 20260505035916 | 12 | 0 | 3.2 | 4.8 | 0.05 | 0.33 | 0.20 | 99 | 1011.4 |
| 20260505034916 | 13 | 23 | 3.2 | 4.8 | 0.05 | 0.33 | 0.20 | 99 | 1011.4 |
| 20260505033916 | 13 | 0.0 | 0.0 | 0.05 | 0.33 | 0.18 | 99 | 1011.5 | |
| 20260505032916 | 13 | 0.0 | 1.6 | 0.05 | 0.33 | 0.18 | 99 | 1011.5 | |
| 20260505031916 | 13 | 0.0 | 0.0 | 0.05 | 0.30 | 0.15 | 99 | 1011.5 | |
| 20260505030936 | 13 | 0.0 | 0.0 | 0.05 | 0.30 | 0.15 | 99 | 1011.6 | |
| 20260505025916 | 13 | 0.0 | 1.6 | 0.03 | 0.28 | 0.15 | 99 | 1011.6 | |
| 20260505024936 | 13 | 0.0 | 1.6 | 0.03 | 0.28 | 0.15 | 99 | 1011.7 | |
| 20260505023916 | 13 | 0.0 | 0.0 | 0.05 | 0.28 | 0.15 | 99 | 1011.8 | |
| 20260505022916 | 13 | 0.0 | 0.0 | 0.03 | 0.25 | 0.13 | 99 | 1011.9 | |
| 20260505021936 | 13 | 203 | 1.6 | 1.6 | 0.03 | 0.25 | 0.13 | 99 | 1011.9 |
| 20260505020916 | 13 | 0.0 | 1.6 | 0.03 | 0.25 | 0.13 | 99 | 1011.9 | |
| 20260505015956 | 13 | 0.0 | 1.6 | 0.03 | 0.25 | 0.13 | 99 | 1012.0 | |
| 20260505014936 | 13 | 0.0 | 0.0 | 0.05 | 0.25 | 0.13 | 99 | 1012.0 | |
| 20260505013916 | 13 | 0.0 | 1.6 | 0.03 | 0.23 | 0.10 | 99 | 1012.0 | |
| 20260505012916 | 13 | 0.0 | 0.0 | 0.03 | 0.23 | 0.10 | 99 | 1012.1 | |
| 20260505011916 | 13 | 0.0 | 0.0 | 0.03 | 0.23 | 0.10 | 99 | 1012.2 | |
| 20260505010916 | 13 | 0.0 | 0.0 | 0.03 | 0.23 | 0.10 | 99 | 1012.2 | |
| 20260505005916 | 13 | 0.0 | 0.0 | 0.03 | 0.23 | 0.10 | 99 | 1012.3 | |
| 20260505004916 | 13 | 0.0 | 0.0 | 0.00 | 0.23 | 0.08 | 99 | 1012.4 | |
| 20260505003916 | 13 | 0.0 | 0.0 | 0.00 | 0.23 | 0.08 | 99 | 1012.4 | |
| 20260505002916 | 13 | 0.0 | 0.0 | 0.00 | 0.23 | 0.08 | 99 | 1012.5 | |
| 20260505001916 | 13 | 0.0 | 0.0 | 0.00 | 0.23 | 0.08 | 99 | 1012.7 | |
| 20260505000916 | 13 | 0.0 | 1.6 | 0.03 | 0.23 | 0.08 | 99 | 1012.7 | |
| 20260504235916 | 13 | 0.0 | 0.0 | 0.03 | 0.23 | 0.08 | 99 | 1012.9 | |
| 20260504234916 | 13 | 0.0 | 0.0 | 0.03 | 0.23 | 0.08 | 99 | 1013.0 | |
| 20260504233916 | 13 | 0.0 | 0.0 | 0.03 | 0.23 | 0.08 | 98 | 1013.1 | |
| 20260504232916 | 13 | 0.0 | 0.0 | 0.05 | 0.23 | 0.08 | 98 | 1013.2 | |
| 20260504231916 | 13 | 0.0 | 1.6 | 0.05 | 0.23 | 0.08 | 98 | 1013.3 | |
| 20260504230916 | 13 | 0.0 | 1.6 | 0.05 | 0.20 | 0.05 | 98 | 1013.5 | |
| 20260504225916 | 13 | 0.0 | 1.6 | 0.05 | 0.20 | 0.05 | 98 | 1013.6 | |
| 20260504224916 | 13 | 0.0 | 1.6 | 0.08 | 0.20 | 0.05 | 98 | 1013.6 | |
| 20260504223916 | 13 | 270 | 1.6 | 1.6 | 0.13 | 0.20 | 0.05 | 98 | 1013.7 |
| 20260504222916 | 13 | 270 | 1.6 | 1.6 | 0.13 | 0.18 | 0.05 | 98 | 1013.7 |
| 20260504221916 | 13 | 0.0 | 0.0 | 0.13 | 0.15 | 0.03 | 98 | 1013.6 | |
| 20260504220916 | 13 | 0.0 | 0.0 | 0.13 | 0.15 | 0.00 | 98 | 1013.6 | |
| 20260504215917 | 13 | 0.0 | 1.6 | 0.15 | 0.15 | 0.15 | 97 | 1013.7 | |
| 20260504214916 | 13 | 315 | 1.6 | 1.6 | 0.10 | 0.10 | 0.10 | 97 | 1013.7 |
| 20260504213916 | 14 | 0.0 | 0.0 | 0.08 | 0.08 | 0.08 | 97 | 1013.8 | |
| 20260504212916 | 14 | 0.0 | 1.6 | 0.05 | 0.05 | 0.05 | 96 | 1013.8 | |
| 20260504211917 | 14 | 0.0 | 1.6 | 0.05 | 0.05 | 0.05 | 96 | 1013.9 | |
| 20260504210917 | 15 | 270 | 3.2 | 4.8 | 0.03 | 0.03 | 0.03 | 93 | 1014.1 |
| 20260504210016 | 15 | 0.0 | 1.6 | 0.00 | 0.00 | 0.00 | 87 | 1014.1 | |
| 20260504204936 | 15 | 225 | 1.6 | 3.2 | 0.00 | 0.00 | 0.00 | 86 | 1014.0 |
| 20260504203916 | 16 | 225 | 3.2 | 8.0 | 0.00 | 0.00 | 0.00 | 84 | 1014.1 |
| 20260504202916 | 16 | 0.0 | 1.6 | 0.00 | 0.00 | 0.00 | 82 | 1014.1 | |
| 20260504201916 | 16 | 225 | 3.2 | 4.8 | 0.00 | 0.00 | 0.00 | 80 | 1014.1 |
| 20260504200916 | 16 | 225 | 6.4 | 11.3 | 0.00 | 0.00 | 0.00 | 79 | 1014.0 |
| 20260504195916 | 17 | 225 | 4.8 | 8.0 | 0.00 | 0.00 | 0.00 | 77 | 1013.9 |
| 20260504194916 | 17 | 225 | 3.2 | 8.0 | 0.00 | 0.00 | 0.00 | 77 | 1013.9 |
| 20260504193936 | 17 | 0.0 | 1.6 | 0.00 | 0.00 | 0.00 | 75 | 1013.8 | |
| 20260504192917 | 17 | 135 | 3.2 | 9.7 | 0.00 | 0.00 | 0.00 | 74 | 1013.7 |
| 20260504191916 | 17 | 0.0 | 0.0 | 0.00 | 0.00 | 0.00 | 72 | 1013.5 | |
| 20260504190916 | 17 | 0.0 | 0.0 | 0.00 | 0.00 | 0.00 | 71 | 1013.4 |